When you browse on this site, cookies collect data to enhance your experience and personalize the content and advertising you see.
Visit our Privacy Policy to learn more. By continuing to use the site, you agree to this use of cookies and data.
  • în România
  • Lista ţărilor
  • Pe 7 zile
  • Temperatura apei
  • Hartă satelitară
  • Meteo pe hartă
  • Widget-uri
  • user-avatar
    Intrare

    Meteo pe oră la Annaba

    Astăzi, 19 Iulie, Vineri

    Timp Temperatura Precipitaţii Vânt Presiune Umiditate
    00:00 +24°C° 0 mm 1 m/s 760 mmHg 74%
    01:00 +24°C° 0 mm 1 m/s 760 mmHg 73%
    02:00 +24°C° 0 mm 1 m/s 760 mmHg 71%
    03:00 +23°C° 0 mm 1 m/s 760 mmHg 69%
    04:00 +23°C° 0 mm 1 m/s 760 mmHg 67%
    05:00 +24°C° 0 mm 1 m/s 760 mmHg 63%
    06:00 +25°C° 0 mm 1 m/s 760 mmHg 59%
    07:00 +24°C° 0 mm 0 m/s 760 mmHg 54%
    08:00 +28°C° 0 mm 1 m/s 760 mmHg 50%
    09:00 +29°C° 0 mm 1 m/s 760 mmHg 46%
    10:00 +31°C° 0 mm 2 m/s 760 mmHg 42%
    11:00 +33°C° 0 mm 3 m/s 760 mmHg 42%
    12:00 +33°C° 0 mm 4 m/s 760 mmHg 42%
    13:00 +34°C° 0 mm 5 m/s 760 mmHg 43%
    14:00 +34°C° 0 mm 5 m/s 760 mmHg 43%
    15:00 +33°C° 0 mm 5 m/s 759 mmHg 44%
    16:00 +33°C° 0 mm 5 m/s 759 mmHg 45%
    17:00 +32°C° 0 mm 4 m/s 759 mmHg 50%
    18:00 +30°C° 0 mm 4 m/s 759 mmHg 54%
    19:00 +29°C° 0 mm 3 m/s 759 mmHg 58%
    20:00 +28°C° 0 mm 3 m/s 759 mmHg 64%
    21:00 +27°C° 0 mm 3 m/s 760 mmHg 70%
    22:00 +25°C° 0 mm 2 m/s 760 mmHg 76%
    23:00 +25°C° 0 mm 2 m/s 760 mmHg 76%

    Mâine, 20 Iulie, Sâmbătă

    Timp Temperatura Precipitaţii Vânt Presiune Umiditate
    00:00 +25°C° 0 mm 2 m/s 760 mmHg 77%
    01:00 +25°C° 0 mm 1 m/s 760 mmHg 77%
    02:00 +25°C° 0 mm 1 m/s 759 mmHg 75%
    03:00 +25°C° 0 mm 1 m/s 759 mmHg 74%
    04:00 +24°C° 0 mm 1 m/s 759 mmHg 72%
    05:00 +26°C° 0 mm 1 m/s 759 mmHg 66%
    06:00 +27°C° 0 mm 1 m/s 759 mmHg 60%
    07:00 +28°C° 0 mm 1 m/s 759 mmHg 55%
    08:00 +30°C° 0 mm 2 m/s 759 mmHg 49%
    09:00 +32°C° 0 mm 2 m/s 759 mmHg 43%
    10:00 +35°C° 0 mm 2 m/s 759 mmHg 37%
    11:00 +36°C° 0 mm 3 m/s 759 mmHg 38%
    12:00 +36°C° 0 mm 4 m/s 759 mmHg 39%
    13:00 +37°C° 0 mm 5 m/s 759 mmHg 40%
    14:00 +36°C° 0 mm 5 m/s 759 mmHg 42%
    15:00 +36°C° 0 mm 6 m/s 758 mmHg 44%
    16:00 +36°C° 0 mm 6 m/s 758 mmHg 46%
    17:00 +34°C° 0 mm 5 m/s 758 mmHg 50%
    18:00 +33°C° 0 mm 5 m/s 758 mmHg 54%
    19:00 +32°C° 0 mm 4 m/s 759 mmHg 58%
    20:00 +30°C° 0 mm 3 m/s 759 mmHg 61%
    21:00 +29°C° 0 mm 2 m/s 760 mmHg 64%
    22:00 +28°C° 0 mm 2 m/s 760 mmHg 67%
    23:00 +28°C° 0 mm 2 m/s 760 mmHg 66%

    Poimâine, 21 Iulie, Duminică

    Timp Temperatura Precipitaţii Vânt Presiune Umiditate
    00:00 +28°C° 0 mm 2 m/s 760 mmHg 66%
    01:00 +28°C° 0 mm 1 m/s 760 mmHg 65%
    02:00 +27°C° 0 mm 1 m/s 760 mmHg 68%
    03:00 +27°C° 0 mm 1 m/s 760 mmHg 70%
    04:00 +27°C° 0 mm 1 m/s 759 mmHg 72%
    05:00 +27°C° 0 mm 1 m/s 760 mmHg 72%
    06:00 +28°C° 0 mm 1 m/s 760 mmHg 71%
    07:00 +28°C° 0 mm 1 m/s 760 mmHg 70%
    08:00 +30°C° 0 mm 2 m/s 761 mmHg 63%
    09:00 +31°C° 0 mm 2 m/s 761 mmHg 57%
    10:00 +34°C° 0 mm 3 m/s 761 mmHg 51%
    11:00 +34°C° 0 mm 4 m/s 761 mmHg 50%
    12:00 +35°C° 0 mm 4 m/s 761 mmHg 48%
    13:00 +35°C° 0 mm 5 m/s 761 mmHg 47%
    14:00 +35°C° 0 mm 5 m/s 761 mmHg 49%
    15:00 +34°C° 0 mm 5 m/s 761 mmHg 51%
    16:00 +34°C° 0 mm 5 m/s 760 mmHg 53%
    17:00 +33°C° 0 mm 4 m/s 761 mmHg 57%
    18:00 +32°C° 0 mm 4 m/s 761 mmHg 60%
    19:00 +30°C° 0 mm 3 m/s 761 mmHg 63%
    20:00 +29°C° 0 mm 3 m/s 761 mmHg 66%
    21:00 +28°C° 0 mm 2 m/s 762 mmHg 69%
    22:00 +27°C° 0 mm 2 m/s 762 mmHg 72%
    23:00 +27°C° 0 mm 1 m/s 762 mmHg 73%

    22 Iulie, Luni

    Timp Temperatura Precipitaţii Vânt Presiune Umiditate
    00:00 +27°C° 0 mm 1 m/s 762 mmHg 73%
    01:00 +26°C° 0 mm 1 m/s 762 mmHg 73%
    02:00 +26°C° 0 mm 1 m/s 762 mmHg 74%
    03:00 +26°C° 0 mm 1 m/s 762 mmHg 75%
    04:00 +26°C° 0 mm 1 m/s 761 mmHg 76%
    05:00 +26°C° 0 mm 1 m/s 762 mmHg 72%
    06:00 +27°C° 0 mm 1 m/s 762 mmHg 68%
    07:00 +28°C° 0 mm 1 m/s 762 mmHg 64%
    08:00 +30°C° 0 mm 1 m/s 762 mmHg 55%
    09:00 +32°C° 0 mm 2 m/s 762 mmHg 47%
    10:00 +34°C° 0 mm 2 m/s 762 mmHg 38%
    11:00 +35°C° 0 mm 3 m/s 762 mmHg 38%
    12:00 +35°C° 0 mm 5 m/s 762 mmHg 38%
    13:00 +36°C° 0 mm 6 m/s 761 mmHg 38%
    14:00 +35°C° 0 mm 6 m/s 761 mmHg 40%
    15:00 +35°C° 0 mm 6 m/s 761 mmHg 42%
    16:00 +34°C° 0 mm 6 m/s 760 mmHg 44%
    17:00 +33°C° 0 mm 6 m/s 760 mmHg 48%
    18:00 +32°C° 0 mm 5 m/s 760 mmHg 52%
    19:00 +30°C° 0 mm 4 m/s 760 mmHg 56%
    20:00 +29°C° 0 mm 4 m/s 761 mmHg 60%
    21:00 +28°C° 0 mm 3 m/s 761 mmHg 63%
    22:00 +27°C° 0 mm 2 m/s 761 mmHg 66%
    23:00 +27°C° 0 mm 2 m/s 761 mmHg 63%

    23 Iulie, Marţi

    Timp Temperatura Precipitaţii Vânt Presiune Umiditate
    00:00 +27°C° 0 mm 2 m/s 761 mmHg 60%
    01:00 +27°C° 0 mm 2 m/s 761 mmHg 58%
    02:00 +27°C° 0 mm 2 m/s 760 mmHg 54%
    03:00 +26°C° 0 mm 2 m/s 760 mmHg 51%
    04:00 +26°C° 0 mm 2 m/s 760 mmHg 48%
    05:00 +27°C° 0 mm 2 m/s 760 mmHg 45%
    06:00 +28°C° 0 mm 2 m/s 760 mmHg 42%
    07:00 +29°C° 0 mm 2 m/s 760 mmHg 39%
    08:00 +31°C° 0 mm 2 m/s 760 mmHg 35%
    09:00 +34°C° 0 mm 3 m/s 760 mmHg 32%
    10:00 +36°C° 0 mm 3 m/s 760 mmHg 28%
    11:00 +36°C° 0 mm 4 m/s 760 mmHg 29%
    12:00 +37°C° 0 mm 5 m/s 759 mmHg 29%
    13:00 +38°C° 0 mm 6 m/s 759 mmHg 30%
    14:00 +38°C° 0 mm 6 m/s 759 mmHg 33%
    15:00 +36°C° 0 mm 6 m/s 758 mmHg 35%
    16:00 +36°C° 0 mm 7 m/s 758 mmHg 38%
    17:00 +34°C° 0 mm 6 m/s 758 mmHg 43%
    18:00 +33°C° 0 mm 6 m/s 758 mmHg 48%
    19:00 +32°C° 0 mm 5 m/s 758 mmHg 52%
    20:00 +30°C° 0 mm 4 m/s 758 mmHg 57%
    21:00 +28°C° 0 mm 3 m/s 758 mmHg 61%
    22:00 +27°C° 0 mm 2 m/s 758 mmHg 65%
    23:00 +27°C° 0 mm 2 m/s 758 mmHg 63%

    24 Iulie, Miercuri

    Timp Temperatura Precipitaţii Vânt Presiune Umiditate
    00:00 +27°C° 0 mm 2 m/s 758 mmHg 61%
    01:00 +27°C° 0 mm 1 m/s 758 mmHg 59%
    02:00 +27°C° 0 mm 1 m/s 758 mmHg 57%
    03:00 +27°C° 0 mm 1 m/s 757 mmHg 55%
    04:00 +26°C° 0 mm 1 m/s 757 mmHg 52%
    05:00 +27°C° 0 mm 1 m/s 757 mmHg 49%
    06:00 +28°C° 0 mm 1 m/s 757 mmHg 45%
    07:00 +29°C° 0 mm 1 m/s 757 mmHg 41%
    08:00 +32°C° 0 mm 1 m/s 757 mmHg 36%
    09:00 +34°C° 0 mm 1 m/s 757 mmHg 30%
    10:00 +37°C° 0 mm 1 m/s 757 mmHg 25%
    11:00 +38°C° 0 mm 2 m/s 757 mmHg 25%
    12:00 +39°C° 0 mm 3 m/s 756 mmHg 24%
    13:00 +41°C° 0 mm 4 m/s 756 mmHg 24%
    14:00 +40°C° 0 mm 5 m/s 756 mmHg 26%
    15:00 +39°C° 0 mm 5 m/s 755 mmHg 29%
    16:00 +39°C° 0 mm 5 m/s 755 mmHg 31%
    17:00 +37°C° 0 mm 4 m/s 755 mmHg 34%
    18:00 +36°C° 0 mm 4 m/s 755 mmHg 37%
    19:00 +35°C° 0 mm 3 m/s 755 mmHg 39%
    20:00 +32°C° 0 mm 2 m/s 755 mmHg 42%
    21:00 +31°C° 0 mm 2 m/s 755 mmHg 45%
    22:00 +29°C° 0 mm 1 m/s 756 mmHg 48%
    23:00 +29°C° 0 mm 1 m/s 755 mmHg 46%
    Arată mai mult